K7JKM Weather Reports


Display with metric or nautical units.
time (UTC)temp
F
wind
direction
speed
MPH
gust
MPH
rain 1hr
in
rain 24hr
in
rain mn
in
humidity
%
barometer
mb
20260906193029 59 286 0.0 0.0 0.00 0.26 0.26 78 1017.6
20260906191530 59 285 0.0 0.0 0.02 0.26 0.26 78 1017.5
20260906190025 58 295 0.0 0.0 0.05 0.26 0.26 78 1017.5
20260906184533 58 296 0.0 1.0 0.07 0.26 0.26 78 1017.5
20260906183036 57 297 0.0 1.0 0.09 0.26 0.26 78 1017.5
20260906181512 57 297 0.0 1.0 0.09 0.24 0.24 78 1017.5
20260906180009 57 233 0.0 0.0 0.07 0.21 0.21 79 1017.4
20260906174509 57 233 0.0 1.0 0.06 0.19 0.19 79 1017.2
20260906173028 57 289 0.0 0.0 0.05 0.17 0.17 79 1017.1
20260906171528 56 289 0.0 1.0 0.03 0.15 0.15 78 1017.1
20260906170023 56 314 0.0 0.0 0.03 0.14 0.14 79 1017.1
20260906164520 56 293 0.0 3.0 0.03 0.13 0.13 78 1016.8
20260906163017 56 293 0.0 1.0 0.04 0.12 0.12 79 1016.7
20260906161518 56 233 0.0 1.0 0.05 0.12 0.12 79 1016.8
20260906160011 56 232 0.0 0.0 0.05 0.11 0.11 79 1016.7
20260906154532 56 232 0.0 0.0 0.05 0.10 0.10 78 1016.7
20260906153030 56 232 0.0 0.0 0.05 0.08 0.08 78 1016.6
20260906151530 56 233 0.0 0.0 0.06 0.07 0.07 78 1016.6
20260906150029 56 233 0.0 0.0 0.05 0.06 0.06 76 1016.6
20260906144524 56 233 0.0 0.0 0.04 0.05 0.05 76 1016.5
20260906143027 56 233 0.0 0.0 0.03 0.03 0.03 73 1016.4
20260906141515 56 233 0.0 0.0 0.01 0.01 0.01 73 1016.3
20260906140034 56 233 0.0 0.0 0.01 0.01 0.01 72 1016.1
20260906134532 56 233 0.0 0.0 0.01 0.01 0.01 72 1016.0
20260906133031 56 233 0.0 0.0 0.00 0.01 0.00 72 1016.0
20260906131538 56 233 0.0 0.0 0.00 0.01 0.00 72 1015.9
20260906130028 56 233 0.0 0.0 0.00 0.01 0.00 72 1015.9
20260906124528 56 233 0.0 0.0 0.00 0.01 0.00 72 1015.8
20260906123020 56 258 0.0 0.0 0.00 0.01 0.00 71 1015.9
20260906121515 56 258 0.0 0.0 0.00 0.01 0.00 71 1016.0
20260906120011 56 258 0.0 0.0 0.00 0.01 0.00 71 1016.0
20260906114508 56 258 0.0 0.0 0.00 0.01 0.00 71 1015.9
20260906113007 56 258 0.0 0.0 0.00 0.01 0.00 71 1016.0
20260906111505 56 258 0.0 0.0 0.00 0.01 0.00 71 1015.9
20260906110027 56 258 0.0 0.0 0.00 0.01 0.00 71 1016.0
20260906104534 56 258 0.0 0.0 0.00 0.01 0.00 71 1015.9
20260906103023 57 258 0.0 0.0 0.00 0.01 0.00 71 1015.7
20260906101518 57 258 0.0 0.0 0.00 0.01 0.00 71 1015.6
20260906100015 57 258 0.0 0.0 0.00 0.01 0.00 71 1015.6
20260906094522 57 258 0.0 1.0 0.00 0.01 0.00 71 1015.6
20260906093011 56 256 0.0 0.0 0.00 0.01 0.00 72 1015.5
20260906091534 56 256 0.0 0.0 0.00 0.01 0.00 72 1015.5
20260906090029 56 255 0.0 0.0 0.00 0.01 0.00 71 1015.5
20260906084542 56 256 0.0 0.0 0.00 0.01 0.00 70 1015.5
20260906083034 57 256 0.0 0.0 0.00 0.01 0.00 69 1015.5
20260906081519 57 256 0.0 0.0 0.00 0.01 0.00 69 1015.5
20260906080024 57 256 0.0 0.0 0.00 0.01 0.00 68 1015.5
20260906074512 58 256 0.0 0.0 0.00 0.01 0.00 68 1015.6
20260906073040 58 256 0.0 0.0 0.00 0.01 0.00 68 1015.7
20260906071530 58 255 0.0 0.0 0.00 0.01 0.00 68 1015.7
20260906070028 58 256 0.0 1.0 0.00 0.01 0.00 68 1015.6
20260906064532 58 262 0.0 0.0 0.00 0.01 0.01 68 1015.6
20260906063026 58 260 0.0 0.0 0.00 0.01 0.01 68 1015.6
20260906061523 57 260 0.0 0.0 0.00 0.01 0.01 68 1015.7
20260906060020 58 260 0.0 0.0 0.00 0.01 0.01 68 1015.8
20260906054534 58 260 0.0 0.0 0.00 0.01 0.01 67 1016.0
20260906053031 58 261 0.0 0.0 0.00 0.01 0.01 67 1015.8
20260906051529 58 288 0.0 0.0 0.00 0.01 0.01 67 1015.8
20260906050031 59 288 0.0 0.0 0.00 0.01 0.01 67 1015.9
20260906044530 59 199 0.0 0.0 0.00 0.01 0.01 67 1015.9
20260906043003 59 295 0.0 1.0 0.00 0.01 0.01 67 1016.1
20260906041503 59 307 0.0 1.0 0.00 0.01 0.01 67 1016.1
20260906040003 60 287 0.0 1.0 0.00 0.01 0.01 67 1016.1
20260906034506 60 307 0.0 1.0 0.00 0.01 0.01 66 1016.0
20260906033011 61 298 0.0 4.0 0.00 0.01 0.01 66 1015.8
20260906031503 61 298 0.0 3.0 0.00 0.01 0.01 65 1015.8
20260906030002 62 290 0.0 3.0 0.00 0.01 0.01 65 1015.9
20260906024504 63 299 0.0 3.0 0.00 0.01 0.01 64 1015.9
20260906023003 64 275 0.0 3.0 0.00 0.01 0.01 62 1015.8
20260906021504 65 14 0.0 1.0 0.00 0.01 0.01 59 1015.8
20260906020004 66 285 0.0 2.0 0.00 0.01 0.01 57 1015.8
20260906014510 66 298 0.0 3.0 0.00 0.01 0.01 57 1015.8
20260906013007 66 284 0.0 3.0 0.00 0.01 0.01 55 1015.9
20260906011504 68 307 0.0 3.0 0.00 0.01 0.01 53 1015.9
20260906010003 69 288 0.0 3.0 0.00 0.01 0.01 49 1015.9
20260906004504 69 34 0.0 3.0 0.00 0.01 0.01 48 1015.9
20260906003004 70 293 0.0 4.0 0.00 0.01 0.01 48 1015.8
20260906001504 71 302 0.0 2.0 0.00 0.01 0.01 46 1015.8
20260906000008 71 276 0.0 4.0 0.00 0.01 0.01 47 1015.8
20260905234508 72 300 0.0 2.0 0.00 0.01 0.01 42 1015.7
20260905233007 72 143 0.0 4.0 0.00 0.01 0.01 44 1015.8
20260905231506 71 60 0.0 3.0 0.00 0.01 0.01 45 1015.8
20260905230007 71 295 0.0 3.0 0.00 0.01 0.01 46 1016.0
20260905224520 69 11 0.0 5.0 0.00 0.01 0.01 49 1016.1
20260905223009 70 327 0.0 1.0 0.00 0.01 0.01 49 1016.2
20260905221511 70 298 0.0 3.0 0.00 0.01 0.01 48 1016.3
20260905220016 70 306 0.0 3.0 0.00 0.02 0.01 47 1016.5
20260905214514 70 165 0.0 4.0 0.00 0.02 0.01 47 1016.6
20260905213032 70 188 0.0 2.0 0.00 0.04 0.01 53 1016.7
20260905211513 69 324 0.0 2.0 0.00 0.07 0.01 55 1016.8
20260905210015 69 326 0.0 3.0 0.00 0.07 0.01 53 1017.0
20260905204518 69 14 0.0 0.0 0.00 0.07 0.01 54 1017.1
20260905203018 69 319 0.0 0.0 0.00 0.07 0.01 54 1017.1
20260905201516 67 48 0.0 0.0 0.00 0.07 0.01 58 1017.1
20260905200021 66 284 0.0 3.0 0.00 0.07 0.01 60 1017.2
20260905194517 66 278 0.0 1.0 0.00 0.07 0.01 59 1017.3